| time (UTC) | temp F | wind direction | speed knots | gust knots | rain 1hr in | rain 24hr in | rain mn in | humidity % | barometer mb |
| 20260510220038 | 86 | 112 | 0.0 | 0.9 | 0.00 | 0.09 | 0.09 | 72 | 1014.5 |
| 20260510214537 | 87 | 60 | 0.0 | 0.9 | 0.00 | 0.09 | 0.09 | 71 | 1014.6 |
| 20260510213038 | 88 | 150 | 0.0 | 1.7 | 0.00 | 0.09 | 0.09 | 71 | 1014.6 |
| 20260510211541 | 89 | 52 | 0.0 | 1.7 | 0.00 | 0.09 | 0.09 | 66 | 1014.7 |
| 20260510210034 | 89 | 219 | 0.0 | 0.9 | 0.00 | 0.09 | 0.09 | 67 | 1014.7 |
| 20260510204537 | 89 | 142 | 0.0 | 1.7 | 0.00 | 0.09 | 0.09 | 66 | 1014.6 |
| 20260510203031 | 90 | 63 | 0.0 | 0.0 | 0.00 | 0.09 | 0.09 | 64 | 1014.6 |
| 20260510201529 | 90 | 116 | 0.9 | 4.3 | 0.00 | 0.09 | 0.09 | 62 | 1014.4 |
| 20260510200030 | 91 | 160 | 0.0 | 1.7 | 0.00 | 0.09 | 0.09 | 61 | 1014.4 |
| 20260510194536 | 91 | 126 | 0.0 | 6.1 | 0.00 | 0.09 | 0.09 | 61 | 1014.5 |
| 20260510193030 | 92 | 84 | 0.0 | 1.7 | 0.00 | 0.09 | 0.09 | 57 | 1014.5 |
| 20260510191531 | 94 | 139 | 0.0 | 3.5 | 0.00 | 0.09 | 0.09 | 57 | 1014.5 |
| 20260510190041 | 93 | 70 | 0.0 | 1.7 | 0.00 | 0.09 | 0.09 | 59 | 1014.5 |
| 20260510184525 | 91 | 105 | 0.0 | 3.5 | 0.00 | 0.09 | 0.09 | 64 | 1014.6 |
| 20260510183023 | 92 | 158 | 0.0 | 0.9 | 0.00 | 0.09 | 0.09 | 63 | 1014.8 |
| 20260510181522 | 92 | 150 | 0.0 | 4.3 | 0.00 | 0.09 | 0.09 | 63 | 1014.9 |
| 20260510180021 | 93 | 148 | 0.0 | 5.2 | 0.00 | 0.09 | 0.09 | 59 | 1015.0 |
| 20260510174520 | 92 | 144 | 0.0 | 2.6 | 0.00 | 0.09 | 0.09 | 63 | 1015.0 |
| 20260510173024 | 92 | 198 | 0.9 | 6.1 | 0.00 | 0.09 | 0.09 | 63 | 1015.3 |
| 20260510171519 | 93 | 150 | 1.7 | 5.2 | 0.00 | 0.09 | 0.09 | 61 | 1015.4 |
| 20260510170014 | 92 | 132 | 0.9 | 3.5 | 0.00 | 0.09 | 0.09 | 65 | 1015.6 |
| 20260510164517 | 91 | 141 | 0.9 | 5.2 | 0.00 | 0.09 | 0.09 | 63 | 1015.8 |
| 20260510163010 | 91 | 344 | 0.0 | 3.5 | 0.00 | 0.09 | 0.09 | 64 | 1015.7 |
| 20260510161510 | 91 | 78 | 0.9 | 3.5 | 0.00 | 0.09 | 0.09 | 64 | 1015.9 |
| 20260510160008 | 90 | 122 | 0.0 | 6.1 | 0.00 | 0.09 | 0.09 | 66 | 1016.0 |
| 20260510154506 | 90 | 143 | 0.9 | 4.3 | 0.00 | 0.09 | 0.09 | 68 | 1016.1 |
| 20260510153003 | 88 | 72 | 0.0 | 4.3 | 0.00 | 0.09 | 0.09 | 72 | 1015.9 |
| 20260510151630 | 88 | 9 | 0.0 | 3.5 | 0.00 | 0.09 | 0.09 | 72 | 1015.8 |
| 20260510150103 | 87 | 83 | 0.0 | 2.6 | 0.00 | 0.09 | 0.09 | 72 | 1015.9 |
| 20260510144614 | 86 | 148 | 0.0 | 4.3 | 0.00 | 0.09 | 0.09 | 75 | 1016.0 |
| 20260510143106 | 86 | 128 | 0.0 | 4.3 | 0.00 | 0.09 | 0.09 | 78 | 1016.0 |
| 20260510141557 | 85 | 112 | 0.0 | 3.5 | 0.00 | 0.09 | 0.09 | 78 | 1016.0 |
| 20260510140049 | 84 | 96 | 0.0 | 3.5 | 0.00 | 0.09 | 0.09 | 80 | 1015.7 |
| 20260510134544 | 82 | 319 | 0.0 | 4.3 | 0.00 | 0.09 | 0.09 | 82 | 1015.6 |
| 20260510133041 | 81 | 215 | 0.0 | 2.6 | 0.00 | 0.09 | 0.09 | 84 | 1015.5 |
| 20260510131536 | 80 | 137 | 0.0 | 1.7 | 0.00 | 0.09 | 0.09 | 88 | 1015.5 |
| 20260510130035 | 78 | 338 | 0.0 | 0.9 | 0.00 | 0.09 | 0.09 | 89 | 1015.4 |
| 20260510124535 | 77 | 134 | 0.0 | 1.7 | 0.00 | 0.09 | 0.09 | 91 | 1015.4 |
| 20260510123032 | 76 | 115 | 0.0 | 0.0 | 0.00 | 0.09 | 0.09 | 92 | 1015.3 |
| 20260510121531 | 75 | 133 | 0.0 | 0.0 | 0.00 | 0.09 | 0.09 | 93 | 1015.2 |
| 20260510120031 | 75 | 106 | 0.0 | 0.0 | 0.00 | 0.09 | 0.09 | 94 | 1015.0 |
| 20260510114529 | 74 | 323 | 0.0 | 0.0 | 0.00 | 0.09 | 0.09 | 94 | 1014.7 |
| 20260510113023 | 73 | 323 | 0.0 | 0.0 | 0.00 | 0.09 | 0.09 | 94 | 1014.5 |
| 20260510111521 | 73 | 322 | 0.0 | 0.0 | 0.00 | 0.09 | 0.09 | 94 | 1014.3 |
| 20260510110026 | 73 | 323 | 0.0 | 0.0 | 0.00 | 0.09 | 0.09 | 94 | 1014.1 |
| 20260510104519 | 73 | 323 | 0.0 | 0.0 | 0.00 | 0.09 | 0.09 | 94 | 1013.9 |
| 20260510103025 | 73 | 323 | 0.0 | 0.0 | 0.00 | 0.09 | 0.09 | 94 | 1013.6 |
| 20260510101517 | 73 | 323 | 0.0 | 0.0 | 0.00 | 0.09 | 0.09 | 94 | 1013.2 |
| 20260510100029 | 73 | 316 | 0.0 | 0.0 | 0.00 | 0.09 | 0.09 | 94 | 1013.0 |
| 20260510094517 | 73 | 124 | 0.0 | 0.0 | 0.00 | 0.09 | 0.09 | 94 | 1013.1 |
| 20260510093017 | 73 | 105 | 0.0 | 0.0 | 0.00 | 0.09 | 0.09 | 94 | 1013.0 |
| 20260510091516 | 73 | 323 | 0.0 | 0.0 | 0.00 | 0.09 | 0.09 | 94 | 1012.6 |
| 20260510090013 | 73 | 122 | 0.0 | 0.0 | 0.00 | 0.09 | 0.09 | 94 | 1012.6 |
| 20260510084514 | 73 | 143 | 0.0 | 0.0 | 0.00 | 0.09 | 0.09 | 94 | 1012.4 |
| 20260510083019 | 73 | 125 | 0.0 | 0.0 | 0.00 | 0.09 | 0.09 | 94 | 1012.4 |
| 20260510081507 | 73 | 108 | 0.0 | 0.0 | 0.00 | 0.09 | 0.09 | 94 | 1012.5 |
| 20260510080022 | 73 | 91 | 0.0 | 0.0 | 0.00 | 0.09 | 0.09 | 94 | 1012.6 |
| 20260510074505 | 74 | 82 | 0.0 | 0.0 | 0.00 | 0.09 | 0.09 | 94 | 1012.5 |
| 20260510073004 | 74 | 11 | 0.0 | 0.0 | 0.00 | 0.09 | 0.09 | 94 | 1012.6 |
| 20260510071501 | 74 | 11 | 0.0 | 0.0 | 0.00 | 0.09 | 0.09 | 94 | 1012.8 |
| 20260510070001 | 74 | 126 | 0.0 | 0.0 | 0.00 | 0.09 | 0.09 | 94 | 1013.0 |
| 20260510064559 | 74 | 6 | 0.0 | 0.0 | 0.00 | 0.09 | 0.09 | 94 | 1013.0 |
| 20260510063058 | 74 | 119 | 0.0 | 0.0 | 0.00 | 0.09 | 0.09 | 94 | 1013.1 |
| 20260510061557 | 75 | 356 | 0.0 | 0.0 | 0.00 | 0.09 | 0.09 | 93 | 1013.4 |
| 20260510060054 | 75 | 115 | 0.0 | 1.7 | 0.01 | 0.09 | 0.09 | 93 | 1013.6 |
| 20260510054550 | 76 | 145 | 0.0 | 0.0 | 0.09 | 0.09 | 0.09 | 93 | 1013.9 |
| 20260510053047 | 77 | 145 | 0.0 | 0.0 | 0.09 | 0.09 | 0.09 | 92 | 1013.9 |
| 20260510051547 | 78 | 71 | 0.0 | 0.0 | 0.09 | 0.09 | 0.09 | 91 | 1014.0 |
| 20260510050041 | 79 | 71 | 0.0 | 0.0 | 0.08 | 0.08 | 0.08 | 90 | 1014.2 |
| 20260510044539 | 79 | 360 | 0.0 | 0.0 | 0.00 | 0.00 | 0.00 | 88 | 1014.3 |
| 20260510043041 | 79 | 49 | 0.0 | 0.0 | 0.00 | 0.00 | 0.00 | 88 | 1014.2 |
| 20260510041535 | 79 | 48 | 0.0 | 0.0 | 0.00 | 0.00 | 0.00 | 88 | 1014.2 |
| 20260510040033 | 79 | 48 | 0.0 | 0.0 | 0.00 | 0.00 | 0.00 | 88 | 1014.2 |
| 20260510034541 | 79 | 49 | 0.0 | 0.0 | 0.00 | 0.00 | 0.00 | 88 | 1014.2 |
| 20260510033031 | 79 | 48 | 0.0 | 0.0 | 0.00 | 0.00 | 0.00 | 88 | 1013.9 |
| 20260510031532 | 79 | 49 | 0.0 | 0.0 | 0.00 | 0.00 | 0.00 | 88 | 1014.0 |
| 20260510030031 | 79 | 49 | 0.0 | 0.0 | 0.00 | 0.00 | 0.00 | 88 | 1013.9 |
| 20260510024530 | 79 | 49 | 0.0 | 0.0 | 0.00 | 0.00 | 0.00 | 87 | 1013.9 |
| 20260510023029 | 79 | 49 | 0.0 | 0.0 | 0.00 | 0.00 | 0.00 | 87 | 1013.7 |
| 20260510021532 | 79 | 49 | 0.0 | 0.0 | 0.00 | 0.00 | 0.00 | 87 | 1013.7 |
| 20260510020029 | 79 | 48 | 0.0 | 0.0 | 0.00 | 0.00 | 0.00 | 86 | 1013.7 |
| 20260510014529 | 79 | 48 | 0.0 | 0.0 | 0.00 | 0.00 | 0.00 | 85 | 1013.5 |
| 20260510013027 | 80 | 48 | 0.0 | 0.0 | 0.00 | 0.00 | 0.00 | 84 | 1013.2 |
| 20260510011537 | 80 | 46 | 0.0 | 0.0 | 0.00 | 0.00 | 0.00 | 84 | 1013.1 |
| 20260510010025 | 81 | 45 | 0.0 | 0.0 | 0.00 | 0.00 | 0.00 | 83 | 1012.8 |
| 20260510004525 | 81 | 68 | 0.0 | 0.0 | 0.00 | 0.00 | 0.00 | 81 | 1012.8 |
| 20260510003026 | 81 | 50 | 0.0 | 0.0 | 0.00 | 0.00 | 0.00 | 79 | 1012.7 |
| 20260510001526 | 82 | 61 | 0.0 | 0.0 | 0.00 | 0.00 | 0.00 | 76 | 1012.3 |
| 20260510000044 | 82 | 67 | 0.0 | 0.0 | 0.00 | 0.00 | 0.00 | 74 | 1012.1 |
| 20260509234532 | 83 | 18 | 0.0 | 0.0 | 0.00 | 0.00 | 0.00 | 72 | 1012.0 |
| 20260509233021 | 84 | 74 | 0.0 | 5.2 | 0.00 | 0.00 | 0.00 | 68 | 1011.9 |
| 20260509231520 | 85 | 56 | 0.0 | 0.9 | 0.00 | 0.00 | 0.00 | 66 | 1011.7 |
| 20260509230019 | 85 | 18 | 0.0 | 0.0 | 0.00 | 0.00 | 0.00 | 62 | 1011.7 |
| 20260509224519 | 86 | 29 | 0.0 | 0.9 | 0.00 | 0.00 | 0.00 | 60 | 1011.4 |
| 20260509223017 | 87 | 352 | 0.0 | 2.6 | 0.00 | 0.00 | 0.00 | 57 | 1011.4 |
| 20260509221517 | 88 | 159 | 0.0 | 4.3 | 0.00 | 0.00 | 0.00 | 59 | 1011.2 |